STARLINK-1794 (46695 NORAD) Tracking and Keplerian Element Data

This shows tracking and keplerian element data for the satellite.

Feedback or suggestion? Click here.




ElementValue
Catalog46695
NameSTARLINK-1794
Epoch Orbit774
Epoch Day338.91667824
Epoch Year2020
RAAN244.0206
Inclination53.0556
Eccentricity0.0002206
Argument of Perigee80.4555
Mean Anonmoly230.5414
Mean Motion15.25952182
Decay Rate-0.00033897
L11 46695U 20073AB 20338.91667824 -.00033897 00000-0 -12956-2 0 9998
L22 46695 53.0556 244.0206 0002206 80.4555 230.5414 15.25952182 7748

Live tracking and technical data element details for STARLINK-1794 (NORAD 46695). STARLINK-1794 can be tracked NOW for your location showing map with azimuth and elevation plus other details from your city location.

Track the satellite on the map from your city or location and see movement details for azimuth, elevation, latitude, longitude, range, height, and movement on the map or in text.







IsCatalogInMostPopularTable: catalog: 46695, numindb: 8
Update: records affected: 1



GetName: 46695 STARLINK-1794

Hit Count: updated at: Sun, 06 Dec 2020 02:13:16 GMT